Year,Month,Day,Hour,Minute,Value (Times are PST for temperature in C)
2011,07,09,00,00,9.80
2011,07,09,00,01,9.80
2011,07,09,00,02,9.80
2011,07,09,00,03,9.80
2011,07,09,00,04,9.80
2011,07,09,00,05,9.80
2011,07,09,00,06,9.80
2011,07,09,00,07,9.70
2011,07,09,00,08,9.70
2011,07,09,00,09,9.70
2011,07,09,00,10,9.70
2011,07,09,00,11,9.70
2011,07,09,00,12,9.70
2011,07,09,00,13,9.70
2011,07,09,00,14,9.70
2011,07,09,00,15,9.70
2011,07,09,00,16,9.70
2011,07,09,00,17,9.70
2011,07,09,00,18,9.70
2011,07,09,00,19,9.70
2011,07,09,00,20,9.70
2011,07,09,00,21,9.60
2011,07,09,00,22,9.60
2011,07,09,00,23,9.60
2011,07,09,00,24,9.60
2011,07,09,00,25,9.60
2011,07,09,00,26,9.60
2011,07,09,00,27,9.60
2011,07,09,00,28,9.50
2011,07,09,00,29,9.50
2011,07,09,00,30,9.50
2011,07,09,00,31,9.40
2011,07,09,00,32,9.40
2011,07,09,00,33,9.40
2011,07,09,00,34,9.40
2011,07,09,00,35,9.40
2011,07,09,00,36,9.30
2011,07,09,00,37,9.30
2011,07,09,00,38,9.30
2011,07,09,00,39,9.30
2011,07,09,00,40,9.30
2011,07,09,00,41,9.20
2011,07,09,00,42,9.20
2011,07,09,00,43,9.20
2011,07,09,00,44,9.20
2011,07,09,00,45,9.20
2011,07,09,00,46,9.20
2011,07,09,00,47,9.20
2011,07,09,00,48,9.30
2011,07,09,00,49,9.30
2011,07,09,00,50,9.30
2011,07,09,00,51,9.30
2011,07,09,00,52,9.30
2011,07,09,00,53,9.30
2011,07,09,00,54,9.30
2011,07,09,00,55,9.30
2011,07,09,00,56,9.30
2011,07,09,00,57,9.20
2011,07,09,00,58,9.20
2011,07,09,00,59,9.20
2011,07,09,01,00,9.20
2011,07,09,01,01,9.20
2011,07,09,01,02,9.20
2011,07,09,01,03,9.20
2011,07,09,01,04,9.20
2011,07,09,01,05,9.20
2011,07,09,01,06,9.20
2011,07,09,01,07,9.20
2011,07,09,01,08,9.20
2011,07,09,01,09,9.20
2011,07,09,01,10,9.20
2011,07,09,01,11,9.20
2011,07,09,01,12,9.20
2011,07,09,01,13,9.10
2011,07,09,01,14,9.10
2011,07,09,01,15,9.10
2011,07,09,01,16,9.10
2011,07,09,01,17,9.00
2011,07,09,01,18,9.00
2011,07,09,01,19,8.90
2011,07,09,01,20,8.90
2011,07,09,01,21,8.90
2011,07,09,01,22,8.90
2011,07,09,01,23,8.90
2011,07,09,01,24,8.90
2011,07,09,01,25,8.90
2011,07,09,01,26,8.90
2011,07,09,01,27,8.90
2011,07,09,01,28,8.90
2011,07,09,01,29,8.80
2011,07,09,01,30,8.80
2011,07,09,01,31,8.80
2011,07,09,01,32,8.80
2011,07,09,01,33,8.80
2011,07,09,01,34,8.80
2011,07,09,01,35,8.80
2011,07,09,01,36,8.80
2011,07,09,01,37,8.80
2011,07,09,01,38,8.80
2011,07,09,01,39,8.80
2011,07,09,01,40,8.80
2011,07,09,01,41,8.70
2011,07,09,01,42,8.70
2011,07,09,01,43,8.70
2011,07,09,01,44,8.70
2011,07,09,01,45,8.60
2011,07,09,01,46,8.60
2011,07,09,01,47,8.60
2011,07,09,01,48,8.60
2011,07,09,01,49,8.50
2011,07,09,01,50,8.50
2011,07,09,01,51,8.40
2011,07,09,01,52,8.40
2011,07,09,01,53,8.40
2011,07,09,01,54,8.40
2011,07,09,01,55,8.30
2011,07,09,01,56,8.30
2011,07,09,01,57,8.30
2011,07,09,01,58,8.30
2011,07,09,01,59,8.30
2011,07,09,02,00,8.30
2011,07,09,02,01,8.30
2011,07,09,02,02,8.30
2011,07,09,02,03,8.30
2011,07,09,02,04,8.30
2011,07,09,02,05,8.30
2011,07,09,02,06,8.30
2011,07,09,02,07,8.30
2011,07,09,02,08,8.30
2011,07,09,02,09,8.30
2011,07,09,02,10,8.30
2011,07,09,02,11,8.30
2011,07,09,02,12,8.30
2011,07,09,02,13,8.30
2011,07,09,02,14,8.30
2011,07,09,02,15,8.30
2011,07,09,02,16,8.30
2011,07,09,02,17,8.30
2011,07,09,02,18,8.30
2011,07,09,02,19,8.30
2011,07,09,02,20,8.30
2011,07,09,02,21,8.30
2011,07,09,02,22,8.30
2011,07,09,02,23,8.20
2011,07,09,02,24,8.20
2011,07,09,02,25,8.20
2011,07,09,02,26,8.20
2011,07,09,02,27,8.20
2011,07,09,02,28,8.20
2011,07,09,02,29,8.10
2011,07,09,02,30,8.10
2011,07,09,02,31,8.10
2011,07,09,02,32,8.00
2011,07,09,02,33,8.00
2011,07,09,02,34,7.90
2011,07,09,02,35,7.90
2011,07,09,02,36,7.90
2011,07,09,02,37,7.80
2011,07,09,02,38,7.80
2011,07,09,02,39,7.80
2011,07,09,02,40,7.80
2011,07,09,02,41,7.80
2011,07,09,02,42,7.80
2011,07,09,02,43,7.80
2011,07,09,02,44,7.80
2011,07,09,02,45,7.80
2011,07,09,02,46,7.90
2011,07,09,02,47,7.90
2011,07,09,02,48,7.90
2011,07,09,02,49,7.80
2011,07,09,02,50,7.80
2011,07,09,02,51,7.80
2011,07,09,02,52,7.80
2011,07,09,02,53,7.80
2011,07,09,02,54,7.80
2011,07,09,02,55,7.80
2011,07,09,02,56,7.80
2011,07,09,02,57,7.80
2011,07,09,02,58,7.70
2011,07,09,02,59,7.70
2011,07,09,03,00,7.70
2011,07,09,03,01,7.70
2011,07,09,03,02,7.70
2011,07,09,03,03,7.70
2011,07,09,03,04,7.70
2011,07,09,03,05,7.70
2011,07,09,03,06,7.70
2011,07,09,03,07,7.70
2011,07,09,03,08,7.70
2011,07,09,03,09,7.70
2011,07,09,03,10,7.70
2011,07,09,03,11,7.70
2011,07,09,03,12,7.70
2011,07,09,03,13,7.70
2011,07,09,03,14,7.70
2011,07,09,03,15,7.60
2011,07,09,03,16,7.60
2011,07,09,03,17,7.60
2011,07,09,03,18,7.60
2011,07,09,03,19,7.60
2011,07,09,03,20,7.50
2011,07,09,03,21,7.50
2011,07,09,03,22,7.50
2011,07,09,03,23,7.50
2011,07,09,03,24,7.40
2011,07,09,03,25,7.40
2011,07,09,03,26,7.40
2011,07,09,03,27,7.40
2011,07,09,03,28,7.40
2011,07,09,03,29,7.40
2011,07,09,03,30,7.40
2011,07,09,03,31,7.40
2011,07,09,03,32,7.30
2011,07,09,03,33,7.30
2011,07,09,03,34,7.30
2011,07,09,03,35,7.30
2011,07,09,03,36,7.30
2011,07,09,03,37,7.30
2011,07,09,03,38,7.40
2011,07,09,03,39,7.40
2011,07,09,03,40,7.40
2011,07,09,03,41,7.40
2011,07,09,03,42,7.40
2011,07,09,03,43,7.40
2011,07,09,03,44,7.40
2011,07,09,03,45,7.40
2011,07,09,03,46,7.40
2011,07,09,03,47,7.40
2011,07,09,03,48,7.40
2011,07,09,03,49,7.40
2011,07,09,03,50,7.40
2011,07,09,03,51,7.40
2011,07,09,03,52,7.40
2011,07,09,03,53,7.40
2011,07,09,03,54,7.40
2011,07,09,03,55,7.40
2011,07,09,03,56,7.40
2011,07,09,03,57,7.40
2011,07,09,03,58,7.40
2011,07,09,03,59,7.30
2011,07,09,04,00,7.30
2011,07,09,04,01,7.30
2011,07,09,04,02,7.30
2011,07,09,04,03,7.30
2011,07,09,04,04,7.30
2011,07,09,04,05,7.30
2011,07,09,04,06,7.20
2011,07,09,04,07,7.20
2011,07,09,04,08,7.20
2011,07,09,04,09,7.20
2011,07,09,04,10,7.20
2011,07,09,04,11,7.20
2011,07,09,04,12,7.20
2011,07,09,04,13,7.20
2011,07,09,04,14,7.20
2011,07,09,04,15,7.20
2011,07,09,04,16,7.20
2011,07,09,04,17,7.20
2011,07,09,04,18,7.10
2011,07,09,04,19,7.10
2011,07,09,04,20,7.10
2011,07,09,04,21,7.10
2011,07,09,04,22,7.10
2011,07,09,04,23,7.10
2011,07,09,04,24,7.00
2011,07,09,04,25,7.00
2011,07,09,04,26,7.00
2011,07,09,04,27,7.00
2011,07,09,04,28,7.10
2011,07,09,04,29,7.10
2011,07,09,04,30,7.00
2011,07,09,04,31,7.00
2011,07,09,04,32,7.00
2011,07,09,04,33,7.00
2011,07,09,04,34,7.00
2011,07,09,04,35,6.90
2011,07,09,04,36,7.00
2011,07,09,04,37,7.00
2011,07,09,04,38,7.00
2011,07,09,04,39,7.00
2011,07,09,04,40,7.00
2011,07,09,04,41,7.00
2011,07,09,04,42,7.00
2011,07,09,04,43,7.00
2011,07,09,04,44,7.00
2011,07,09,04,45,7.00
2011,07,09,04,46,7.00
2011,07,09,04,47,7.00
2011,07,09,04,48,7.00
2011,07,09,04,49,6.90
2011,07,09,04,50,6.90
2011,07,09,04,51,6.90
2011,07,09,04,52,6.90
2011,07,09,04,53,6.90
2011,07,09,04,54,6.90
2011,07,09,04,55,6.90
2011,07,09,04,56,6.90
2011,07,09,04,57,6.90
2011,07,09,04,58,6.90
2011,07,09,04,59,6.90
2011,07,09,05,00,6.90
2011,07,09,05,01,6.90
2011,07,09,05,02,6.90
2011,07,09,05,03,6.90
2011,07,09,05,04,6.90
2011,07,09,05,05,6.90
2011,07,09,05,06,6.90
2011,07,09,05,07,6.90
2011,07,09,05,08,6.90
2011,07,09,05,09,6.80
2011,07,09,05,10,6.80
2011,07,09,05,11,6.80
2011,07,09,05,12,6.80
2011,07,09,05,13,6.80
2011,07,09,05,14,6.80
2011,07,09,05,15,6.80
2011,07,09,05,16,6.80
2011,07,09,05,17,6.80
2011,07,09,05,18,6.80
2011,07,09,05,19,6.80
2011,07,09,05,20,6.80
2011,07,09,05,21,6.80
2011,07,09,05,22,6.80
2011,07,09,05,23,6.80
2011,07,09,05,24,6.80
2011,07,09,05,25,6.80
2011,07,09,05,26,6.80
2011,07,09,05,27,6.70
2011,07,09,05,28,6.70
2011,07,09,05,29,6.70
2011,07,09,05,30,6.70
2011,07,09,05,31,6.70
2011,07,09,05,32,6.70
2011,07,09,05,33,6.70
2011,07,09,05,34,6.70
2011,07,09,05,35,6.70
2011,07,09,05,36,6.60
2011,07,09,05,37,6.60
2011,07,09,05,38,6.60
2011,07,09,05,39,6.60
2011,07,09,05,40,6.60
2011,07,09,05,41,6.60
2011,07,09,05,42,6.60
2011,07,09,05,43,6.60
2011,07,09,05,44,6.70
2011,07,09,05,45,6.70
2011,07,09,05,46,6.70
2011,07,09,05,47,6.80
2011,07,09,05,48,6.80
2011,07,09,05,49,6.80
2011,07,09,05,50,6.90
2011,07,09,05,51,6.90
2011,07,09,05,52,6.90
2011,07,09,05,53,6.90
2011,07,09,05,54,6.90
2011,07,09,05,55,6.90
2011,07,09,05,56,6.90
2011,07,09,05,57,6.90
2011,07,09,05,58,6.90
2011,07,09,05,59,6.90
2011,07,09,06,00,6.90
2011,07,09,06,01,6.90
2011,07,09,06,02,6.90
2011,07,09,06,03,6.90
2011,07,09,06,04,6.90
2011,07,09,06,05,6.90
2011,07,09,06,06,6.90
2011,07,09,06,07,6.80
2011,07,09,06,08,6.90
2011,07,09,06,09,6.90
2011,07,09,06,10,6.90
2011,07,09,06,11,6.90
2011,07,09,06,12,6.90
2011,07,09,06,13,6.90
2011,07,09,06,14,6.90
2011,07,09,06,15,6.90
2011,07,09,06,16,6.90
2011,07,09,06,17,6.90
2011,07,09,06,18,6.90
2011,07,09,06,19,7.00
2011,07,09,06,20,7.00
2011,07,09,06,21,7.10
2011,07,09,06,22,7.10
2011,07,09,06,23,7.10
2011,07,09,06,24,7.10
2011,07,09,06,25,7.10
2011,07,09,06,26,7.20
2011,07,09,06,27,7.20
2011,07,09,06,28,7.20
2011,07,09,06,29,7.20
2011,07,09,06,30,7.20
2011,07,09,06,31,7.20
2011,07,09,06,32,7.30
2011,07,09,06,33,7.30
2011,07,09,06,34,7.30
2011,07,09,06,35,7.30
2011,07,09,06,36,7.30
2011,07,09,06,37,7.40
2011,07,09,06,38,7.40
2011,07,09,06,39,7.40
2011,07,09,06,40,7.40
2011,07,09,06,41,7.40
2011,07,09,06,42,7.50
2011,07,09,06,43,7.50
2011,07,09,06,44,7.50
2011,07,09,06,45,7.60
2011,07,09,06,46,7.60
2011,07,09,06,47,7.60
2011,07,09,06,48,7.60
2011,07,09,06,49,7.70
2011,07,09,06,50,7.70
2011,07,09,06,51,7.70
2011,07,09,06,52,7.80
2011,07,09,06,53,7.80
2011,07,09,06,54,7.80
2011,07,09,06,55,7.90
2011,07,09,06,56,7.90
2011,07,09,06,57,7.90
2011,07,09,06,58,8.00
2011,07,09,06,59,8.00
2011,07,09,07,00,8.10
2011,07,09,07,01,8.10
2011,07,09,07,02,8.10
2011,07,09,07,03,8.20
2011,07,09,07,04,8.20
2011,07,09,07,05,8.30
2011,07,09,07,06,8.30
2011,07,09,07,07,8.40
2011,07,09,07,08,8.50
2011,07,09,07,09,8.60
2011,07,09,07,10,8.60
2011,07,09,07,11,8.70
2011,07,09,07,12,8.70
2011,07,09,07,13,8.70
2011,07,09,07,14,8.80
2011,07,09,07,15,8.80
2011,07,09,07,16,8.80
2011,07,09,07,17,8.80
2011,07,09,07,18,8.90
2011,07,09,07,19,9.00
2011,07,09,07,20,9.00
2011,07,09,07,21,9.10
2011,07,09,07,22,9.20
2011,07,09,07,23,9.30
2011,07,09,07,24,9.40
2011,07,09,07,25,9.40
2011,07,09,07,26,9.50
2011,07,09,07,27,9.60
2011,07,09,07,28,9.60
2011,07,09,07,29,9.70
2011,07,09,07,30,9.80
2011,07,09,07,31,10.00
2011,07,09,07,32,10.10
2011,07,09,07,33,10.20
2011,07,09,07,34,10.40
2011,07,09,07,35,10.50
2011,07,09,07,36,10.70
2011,07,09,07,37,10.80
2011,07,09,07,38,11.00
2011,07,09,07,39,11.10
2011,07,09,07,40,11.30
2011,07,09,07,41,11.40
2011,07,09,07,42,11.50
2011,07,09,07,43,11.60
2011,07,09,07,44,11.60
2011,07,09,07,45,11.70
2011,07,09,07,46,11.70
2011,07,09,07,47,11.70
2011,07,09,07,48,11.80
2011,07,09,07,49,11.80
2011,07,09,07,50,11.90
2011,07,09,07,51,11.90
2011,07,09,07,52,12.00
2011,07,09,07,53,12.10
2011,07,09,07,54,12.10
2011,07,09,07,55,12.20
2011,07,09,07,56,12.30
2011,07,09,07,57,12.30
2011,07,09,07,58,12.40
2011,07,09,07,59,12.50
2011,07,09,08,00,12.60
2011,07,09,08,01,12.70
2011,07,09,08,02,12.80
2011,07,09,08,03,13.00
2011,07,09,08,04,13.10
2011,07,09,08,05,13.30
2011,07,09,08,06,13.50
2011,07,09,08,07,13.70
2011,07,09,08,08,13.80
2011,07,09,08,09,13.90
2011,07,09,08,10,14.10
2011,07,09,08,11,14.20
2011,07,09,08,12,14.30
2011,07,09,08,13,14.40
2011,07,09,08,14,14.40
2011,07,09,08,15,14.50
2011,07,09,08,16,14.60
2011,07,09,08,17,14.70
2011,07,09,08,18,14.80
2011,07,09,08,19,15.00
2011,07,09,08,20,15.00
2011,07,09,08,21,15.00
2011,07,09,08,22,15.10
2011,07,09,08,23,15.20
2011,07,09,08,24,15.30
2011,07,09,08,25,15.40
2011,07,09,08,26,15.40
2011,07,09,08,27,15.50
2011,07,09,08,28,15.50
2011,07,09,08,29,15.60
2011,07,09,08,30,15.60
2011,07,09,08,31,15.70
2011,07,09,08,32,15.70
2011,07,09,08,33,15.70
2011,07,09,08,34,15.60
2011,07,09,08,35,15.40
2011,07,09,08,36,15.30
2011,07,09,08,37,15.20
2011,07,09,08,38,15.20
2011,07,09,08,39,15.30
2011,07,09,08,40,15.30
2011,07,09,08,41,15.40
2011,07,09,08,42,15.50
2011,07,09,08,43,15.70
2011,07,09,08,44,15.80
2011,07,09,08,45,15.90
2011,07,09,08,46,15.90
2011,07,09,08,47,15.90
2011,07,09,08,48,15.90
2011,07,09,08,49,15.90
2011,07,09,08,50,15.90
2011,07,09,08,51,15.90
2011,07,09,08,52,15.90
2011,07,09,08,53,15.90
2011,07,09,08,54,15.90
2011,07,09,08,55,15.90
2011,07,09,08,56,15.80
2011,07,09,08,57,15.80
2011,07,09,08,58,15.90
2011,07,09,08,59,15.90
2011,07,09,09,00,15.90
2011,07,09,09,01,16.00
2011,07,09,09,02,16.00
2011,07,09,09,03,16.10
2011,07,09,09,04,16.20
2011,07,09,09,05,16.30
2011,07,09,09,06,16.30
2011,07,09,09,07,16.40
2011,07,09,09,08,16.40
2011,07,09,09,09,16.40
2011,07,09,09,10,16.50
2011,07,09,09,11,16.50
2011,07,09,09,12,16.60
2011,07,09,09,13,16.60
2011,07,09,09,14,16.60
2011,07,09,09,15,16.60
2011,07,09,09,16,16.60
2011,07,09,09,17,16.60
2011,07,09,09,18,16.60
2011,07,09,09,19,16.60
2011,07,09,09,20,16.50
2011,07,09,09,21,16.50
2011,07,09,09,22,16.50
2011,07,09,09,23,16.50
2011,07,09,09,24,16.40
2011,07,09,09,25,16.50
2011,07,09,09,26,16.50
2011,07,09,09,27,16.60
2011,07,09,09,28,16.60
2011,07,09,09,29,16.60
2011,07,09,09,30,16.50
2011,07,09,09,31,16.40
2011,07,09,09,32,16.40
2011,07,09,09,33,16.40
2011,07,09,09,34,16.50
2011,07,09,09,35,16.50
2011,07,09,09,36,16.60
2011,07,09,09,37,16.70
2011,07,09,09,38,16.70
2011,07,09,09,39,16.70
2011,07,09,09,40,16.70
2011,07,09,09,41,16.70
2011,07,09,09,42,16.80
2011,07,09,09,43,16.80
2011,07,09,09,44,16.90
2011,07,09,09,45,16.90
2011,07,09,09,46,16.80
2011,07,09,09,47,16.80
2011,07,09,09,48,16.80
2011,07,09,09,49,16.80
2011,07,09,09,50,16.80
2011,07,09,09,51,16.90
2011,07,09,09,52,17.00
2011,07,09,09,53,17.10
2011,07,09,09,54,17.10
2011,07,09,09,55,17.10
2011,07,09,09,56,17.20
2011,07,09,09,57,17.10
2011,07,09,09,58,17.20
2011,07,09,09,59,17.10
2011,07,09,10,00,17.10
2011,07,09,10,01,17.00
2011,07,09,10,02,17.00
2011,07,09,10,03,17.00
2011,07,09,10,04,17.10
2011,07,09,10,05,17.20
2011,07,09,10,06,17.30
2011,07,09,10,07,17.30
2011,07,09,10,08,17.30
2011,07,09,10,09,17.30
2011,07,09,10,10,17.30
2011,07,09,10,11,17.20
2011,07,09,10,12,17.10
2011,07,09,10,13,17.20
2011,07,09,10,14,17.30
2011,07,09,10,15,17.40
2011,07,09,10,16,17.50
2011,07,09,10,17,17.40
2011,07,09,10,18,17.30
2011,07,09,10,19,17.10
2011,07,09,10,20,16.90
2011,07,09,10,21,16.70
2011,07,09,10,22,16.70
2011,07,09,10,23,16.70
2011,07,09,10,24,16.70
2011,07,09,10,25,16.70
2011,07,09,10,26,16.70
2011,07,09,10,27,16.70
2011,07,09,10,28,16.80
2011,07,09,10,29,16.90
2011,07,09,10,30,17.00
2011,07,09,10,31,17.10
2011,07,09,10,32,17.20
2011,07,09,10,33,17.30
2011,07,09,10,34,17.30
2011,07,09,10,35,17.40
2011,07,09,10,36,17.40
2011,07,09,10,37,17.20
2011,07,09,10,38,17.10
2011,07,09,10,39,17.00
2011,07,09,10,40,17.00
2011,07,09,10,41,17.00
2011,07,09,10,42,17.10
2011,07,09,10,43,17.20
2011,07,09,10,44,17.40
2011,07,09,10,45,17.40
2011,07,09,10,46,17.40
2011,07,09,10,47,17.30
2011,07,09,10,48,17.20
2011,07,09,10,49,17.00
2011,07,09,10,50,17.00
2011,07,09,10,51,17.10
2011,07,09,10,52,17.10
2011,07,09,10,53,17.20
2011,07,09,10,54,17.30
2011,07,09,10,55,17.40
2011,07,09,10,56,17.50
2011,07,09,10,57,17.50
2011,07,09,10,58,17.50
2011,07,09,10,59,17.50
2011,07,09,11,00,17.40
2011,07,09,11,01,17.30
2011,07,09,11,02,17.20
2011,07,09,11,03,17.10
2011,07,09,11,04,17.10
2011,07,09,11,05,17.10
2011,07,09,11,06,17.00
2011,07,09,11,07,16.80
2011,07,09,11,08,16.80
2011,07,09,11,09,16.80
2011,07,09,11,10,16.80
2011,07,09,11,11,16.90
2011,07,09,11,12,17.00
2011,07,09,11,13,17.10
2011,07,09,11,14,17.20
2011,07,09,11,15,17.30
2011,07,09,11,16,17.40
2011,07,09,11,17,17.60
2011,07,09,11,18,17.80
2011,07,09,11,19,17.90
2011,07,09,11,20,17.90
2011,07,09,11,21,17.90
2011,07,09,11,22,18.00
2011,07,09,11,23,18.10
2011,07,09,11,24,18.10
2011,07,09,11,25,18.00
2011,07,09,11,26,18.00
2011,07,09,11,27,18.10
2011,07,09,11,28,18.00
2011,07,09,11,29,17.80
2011,07,09,11,30,17.60
2011,07,09,11,31,17.70
2011,07,09,11,32,17.70
2011,07,09,11,33,17.80
2011,07,09,11,34,17.80
2011,07,09,11,35,17.80
2011,07,09,11,36,17.70
2011,07,09,11,37,17.60
2011,07,09,11,38,17.60
2011,07,09,11,39,17.70
2011,07,09,11,40,17.80
2011,07,09,11,41,17.80
2011,07,09,11,42,17.90
2011,07,09,11,43,18.10
2011,07,09,11,44,18.10
2011,07,09,11,45,18.00
2011,07,09,11,46,18.00
2011,07,09,11,47,17.90
2011,07,09,11,48,17.90
2011,07,09,11,49,18.00
2011,07,09,11,50,18.10
2011,07,09,11,51,18.30
2011,07,09,11,52,18.50
2011,07,09,11,53,18.60
2011,07,09,11,54,18.60
2011,07,09,11,55,18.60
2011,07,09,11,56,18.60
2011,07,09,11,57,18.60
2011,07,09,11,58,18.70
2011,07,09,11,59,18.60
2011,07,09,12,00,18.60
2011,07,09,12,01,18.70
2011,07,09,12,02,18.80
2011,07,09,12,03,18.70
2011,07,09,12,04,18.60
2011,07,09,12,05,18.40
2011,07,09,12,06,18.30
2011,07,09,12,07,18.10
2011,07,09,12,08,17.90
2011,07,09,12,09,17.80
2011,07,09,12,10,17.80
2011,07,09,12,11,17.90
2011,07,09,12,12,18.00
2011,07,09,12,13,18.20
2011,07,09,12,14,18.30
2011,07,09,12,15,18.30
2011,07,09,12,16,18.40
2011,07,09,12,17,18.50
2011,07,09,12,18,18.40
2011,07,09,12,19,18.30
2011,07,09,12,20,18.20
2011,07,09,12,21,18.10
2011,07,09,12,22,18.10
2011,07,09,12,23,18.10
2011,07,09,12,24,18.00
2011,07,09,12,25,18.00
2011,07,09,12,26,17.80
2011,07,09,12,27,17.80
2011,07,09,12,28,17.80
2011,07,09,12,29,17.80
2011,07,09,12,30,17.80
2011,07,09,12,31,17.90
2011,07,09,12,32,17.80
2011,07,09,12,33,17.90
2011,07,09,12,34,18.10
2011,07,09,12,35,18.20
2011,07,09,12,36,18.20
2011,07,09,12,37,18.40
2011,07,09,12,38,18.60
2011,07,09,12,39,18.80
2011,07,09,12,40,18.70
2011,07,09,12,41,18.80
2011,07,09,12,42,18.90
2011,07,09,12,43,19.00
2011,07,09,12,44,19.20
2011,07,09,12,45,19.20
2011,07,09,12,46,19.20
2011,07,09,12,47,19.10
2011,07,09,12,48,19.10
2011,07,09,12,49,19.10
2011,07,09,12,50,19.00
2011,07,09,12,51,18.90
2011,07,09,12,52,18.80
2011,07,09,12,53,18.90
2011,07,09,12,54,18.80
2011,07,09,12,55,18.70
2011,07,09,12,56,18.60
2011,07,09,12,57,18.50
2011,07,09,12,58,18.40
2011,07,09,12,59,18.30
2011,07,09,13,00,18.30
2011,07,09,13,01,18.30
2011,07,09,13,02,18.30
2011,07,09,13,03,18.40
2011,07,09,13,04,18.50
2011,07,09,13,05,18.60
2011,07,09,13,06,18.70
2011,07,09,13,07,18.70
2011,07,09,13,08,18.70
2011,07,09,13,09,18.60
2011,07,09,13,10,18.60
2011,07,09,13,11,18.70
2011,07,09,13,12,18.70
2011,07,09,13,13,18.80
2011,07,09,13,14,18.80
2011,07,09,13,15,18.70
2011,07,09,13,16,18.70
2011,07,09,13,17,18.80
2011,07,09,13,18,18.90
2011,07,09,13,19,19.10
2011,07,09,13,20,19.20
2011,07,09,13,21,19.40
2011,07,09,13,22,19.50
2011,07,09,13,23,19.60
2011,07,09,13,24,19.70
2011,07,09,13,25,19.60
2011,07,09,13,26,19.50
2011,07,09,13,27,19.20
2011,07,09,13,28,18.90
2011,07,09,13,29,18.70
2011,07,09,13,30,18.60
2011,07,09,13,31,18.60
2011,07,09,13,32,18.60
2011,07,09,13,33,18.70
2011,07,09,13,34,18.80
2011,07,09,13,35,18.90
2011,07,09,13,36,18.90
2011,07,09,13,37,18.90
2011,07,09,13,38,18.80
2011,07,09,13,39,18.70
2011,07,09,13,40,18.60
2011,07,09,13,41,18.50
2011,07,09,13,42,18.30
2011,07,09,13,43,18.40
2011,07,09,13,44,18.50
2011,07,09,13,45,18.60
2011,07,09,13,46,18.70
2011,07,09,13,47,18.70
2011,07,09,13,48,18.60
2011,07,09,13,49,18.60
2011,07,09,13,50,18.70
2011,07,09,13,51,18.70
2011,07,09,13,52,18.70
2011,07,09,13,53,18.70
2011,07,09,13,54,18.70
2011,07,09,13,55,18.70
2011,07,09,13,56,18.70
2011,07,09,13,57,18.90
2011,07,09,13,58,19.00
2011,07,09,13,59,19.10
2011,07,09,14,00,19.00
2011,07,09,14,01,18.90
2011,07,09,14,02,18.70
2011,07,09,14,03,18.60
2011,07,09,14,04,18.60
2011,07,09,14,05,18.60
2011,07,09,14,06,18.50
2011,07,09,14,07,18.50
2011,07,09,14,08,18.40
2011,07,09,14,09,18.50
2011,07,09,14,10,18.60
2011,07,09,14,11,18.70
2011,07,09,14,12,18.80
2011,07,09,14,13,18.90
2011,07,09,14,14,18.80
2011,07,09,14,15,18.70
2011,07,09,14,16,18.60
2011,07,09,14,17,18.60
2011,07,09,14,18,18.60
2011,07,09,14,19,18.60
2011,07,09,14,20,18.70
2011,07,09,14,21,18.80
2011,07,09,14,22,18.80
2011,07,09,14,23,18.80
2011,07,09,14,24,18.70
2011,07,09,14,25,18.70
2011,07,09,14,26,18.80
2011,07,09,14,27,18.90
2011,07,09,14,28,19.10
2011,07,09,14,29,19.10
2011,07,09,14,30,19.00
2011,07,09,14,31,18.90
2011,07,09,14,32,18.80
2011,07,09,14,33,18.80
2011,07,09,14,34,18.80
2011,07,09,14,35,18.80
2011,07,09,14,36,18.60
2011,07,09,14,37,18.50
2011,07,09,14,38,18.30
2011,07,09,14,39,18.30
2011,07,09,14,40,18.50
2011,07,09,14,41,18.70
2011,07,09,14,42,18.80
2011,07,09,14,43,18.80
2011,07,09,14,44,18.70
2011,07,09,14,45,18.60
2011,07,09,14,46,18.60
2011,07,09,14,47,18.50
2011,07,09,14,48,18.40
2011,07,09,14,49,18.40
2011,07,09,14,50,18.30
2011,07,09,14,51,18.30
2011,07,09,14,52,18.30
2011,07,09,14,53,18.20
2011,07,09,14,54,18.20
2011,07,09,14,55,18.20
2011,07,09,14,56,18.40
2011,07,09,14,57,18.50
2011,07,09,14,58,18.60
2011,07,09,14,59,18.60
2011,07,09,15,00,18.70
2011,07,09,15,01,18.70
2011,07,09,15,02,18.70
2011,07,09,15,03,18.80
2011,07,09,15,04,18.70
2011,07,09,15,05,18.60
2011,07,09,15,06,18.50
2011,07,09,15,07,18.40
2011,07,09,15,08,18.40
2011,07,09,15,09,18.40
2011,07,09,15,10,18.40
2011,07,09,15,11,18.70
2011,07,09,15,12,18.80
2011,07,09,15,13,18.90
2011,07,09,15,14,19.00
2011,07,09,15,15,19.10
2011,07,09,15,16,19.00
2011,07,09,15,17,18.90
2011,07,09,15,18,18.90
2011,07,09,15,19,18.90
2011,07,09,15,20,18.90
2011,07,09,15,21,18.90
2011,07,09,15,22,19.00
2011,07,09,15,23,19.00
2011,07,09,15,24,18.90
2011,07,09,15,25,19.00
2011,07,09,15,26,19.10
2011,07,09,15,27,19.20
2011,07,09,15,28,19.20
2011,07,09,15,29,19.30
2011,07,09,15,30,19.40
2011,07,09,15,31,19.40
2011,07,09,15,32,19.50
2011,07,09,15,33,19.60
2011,07,09,15,34,19.60
2011,07,09,15,35,19.70
2011,07,09,15,36,19.70
2011,07,09,15,37,19.70
2011,07,09,15,38,19.70
2011,07,09,15,39,19.70
2011,07,09,15,40,19.60
2011,07,09,15,41,19.50
2011,07,09,15,42,19.40
2011,07,09,15,43,19.20
2011,07,09,15,44,19.20
2011,07,09,15,45,19.20
2011,07,09,15,46,19.20
2011,07,09,15,47,19.20
2011,07,09,15,48,19.30
2011,07,09,15,49,19.20
2011,07,09,15,50,19.10
2011,07,09,15,51,19.10
2011,07,09,15,52,19.10
2011,07,09,15,53,19.00
2011,07,09,15,54,19.00
2011,07,09,15,55,19.10
2011,07,09,15,56,19.10
2011,07,09,15,57,19.10
2011,07,09,15,58,19.10
2011,07,09,15,59,19.10
2011,07,09,16,00,19.00
2011,07,09,16,01,19.00
2011,07,09,16,02,18.90
2011,07,09,16,03,18.90
2011,07,09,16,04,19.00
2011,07,09,16,05,19.00
2011,07,09,16,06,19.10
2011,07,09,16,07,19.00
2011,07,09,16,08,19.00
2011,07,09,16,09,19.10
2011,07,09,16,10,19.20
2011,07,09,16,11,19.30
2011,07,09,16,12,19.40
2011,07,09,16,13,19.40
2011,07,09,16,14,19.50
2011,07,09,16,15,19.50
2011,07,09,16,16,19.30
2011,07,09,16,17,19.30
2011,07,09,16,18,19.20
2011,07,09,16,19,19.10
2011,07,09,16,20,19.10
2011,07,09,16,21,19.10
2011,07,09,16,22,19.00
2011,07,09,16,23,18.90
2011,07,09,16,24,18.90
2011,07,09,16,25,18.80
2011,07,09,16,26,18.80
2011,07,09,16,27,18.80
2011,07,09,16,28,18.90
2011,07,09,16,29,18.90
2011,07,09,16,30,19.00
2011,07,09,16,31,19.00
2011,07,09,16,32,18.90
2011,07,09,16,33,19.00
2011,07,09,16,34,19.10
2011,07,09,16,35,19.20
2011,07,09,16,36,19.30
2011,07,09,16,37,19.40
2011,07,09,16,38,19.50
2011,07,09,16,39,19.60
2011,07,09,16,40,19.70
2011,07,09,16,41,19.90
2011,07,09,16,42,20.00
2011,07,09,16,43,20.10
2011,07,09,16,44,20.10
2011,07,09,16,45,20.00
2011,07,09,16,46,20.00
2011,07,09,16,47,19.90
2011,07,09,16,48,19.90
2011,07,09,16,49,19.90
2011,07,09,16,50,19.80
2011,07,09,16,51,19.80
2011,07,09,16,52,19.80
2011,07,09,16,53,19.80
2011,07,09,16,54,19.80
2011,07,09,16,55,19.90
2011,07,09,16,56,19.90
2011,07,09,16,57,19.90
2011,07,09,16,58,19.90
2011,07,09,16,59,19.90
2011,07,09,17,00,20.00
2011,07,09,17,01,20.10
2011,07,09,17,02,20.10
2011,07,09,17,03,20.10
2011,07,09,17,04,20.10
2011,07,09,17,05,20.10
2011,07,09,17,06,20.20
2011,07,09,17,07,20.20
2011,07,09,17,08,20.20
2011,07,09,17,09,20.20
2011,07,09,17,10,20.10
2011,07,09,17,11,20.00
2011,07,09,17,12,19.90
2011,07,09,17,13,19.90
2011,07,09,17,14,19.80
2011,07,09,17,15,19.70
2011,07,09,17,16,19.60
2011,07,09,17,17,19.60
2011,07,09,17,18,19.50
2011,07,09,17,19,19.50
2011,07,09,17,20,19.60
2011,07,09,17,21,19.60
2011,07,09,17,22,19.60
2011,07,09,17,23,19.60
2011,07,09,17,24,19.50
2011,07,09,17,25,19.50
2011,07,09,17,26,19.50
2011,07,09,17,27,19.40
2011,07,09,17,28,19.40
2011,07,09,17,29,19.30
2011,07,09,17,30,19.30
2011,07,09,17,31,19.20
2011,07,09,17,32,19.20
2011,07,09,17,33,19.20
2011,07,09,17,34,19.20
2011,07,09,17,35,19.20
2011,07,09,17,36,19.20
2011,07,09,17,37,19.20
2011,07,09,17,38,19.20
2011,07,09,17,39,19.20